CW6382 Weather Reports


time (UTC)temp
F
wind
direction
speed
knots
gust
knots
rain 1hr
in
rain 24hr
in
rain mn
in
humidity
%
barometer
mb
20260506124526 42 288 0.0 1.7 0.00 0.04 0.00 70 1018.3
20260506123012 41 8 0.0 1.7 0.00 0.05 0.00 72 1018.1
20260506121521 42 323 0.0 1.7 0.00 0.06 0.00 69 1017.9
20260506120028 43 321 1.7 4.3 0.00 0.07 0.00 68 1017.8
20260506114520 43 315 0.9 4.3 0.00 0.12 0.00 68 1017.7
20260506113035 44 328 1.7 4.3 0.00 0.12 0.00 66 1017.7
20260506111510 44 347 1.7 5.2 0.00 0.12 0.00 66 1017.6
20260506110018 44 319 1.7 6.1 0.00 0.12 0.00 66 1017.6
20260506104525 44 330 1.7 6.1 0.00 0.12 0.00 66 1017.5
20260506103014 45 323 1.7 6.1 0.00 0.12 0.00 65 1017.4
20260506101518 45 329 1.7 5.2 0.00 0.12 0.00 65 1017.3
20260506100026 45 332 2.6 5.2 0.00 0.12 0.00 65 1017.2
20260506094514 45 316 1.7 4.3 0.00 0.12 0.00 65 1017.1
20260506093024 45 303 0.9 4.3 0.00 0.12 0.00 64 1017.1
20260506091506 46 333 3.5 7.8 0.00 0.12 0.00 63 1016.9
20260506090022 46 321 3.5 7.8 0.00 0.12 0.00 62 1017.0
20260506084524 47 347 4.3 10.4 0.00 0.12 0.00 61 1016.9
20260506083009 47 323 3.5 8.7 0.00 0.12 0.00 61 1016.9
20260506081521 47 316 0.9 6.1 0.00 0.12 0.00 60 1017.1
20260506073023 47 15 1.7 6.1 0.00 0.12 0.00 63 1017.0
20260506071528 47 292 0.9 5.2 0.00 0.12 0.00 62 1017.2
20260506061519 50 306 0.0 2.6 0.00 0.12 0.00 54 1016.9
20260506044526 52 288 1.7 4.3 0.00 0.12 0.12 52 1016.4
20260506043027 52 274 0.9 6.1 0.00 0.12 0.12 51 1016.3
20260506041520 53 271 0.9 5.2 0.00 0.12 0.12 52 1016.1
20260506040026 53 319 0.9 5.2 0.00 0.12 0.12 50 1015.9
20260506034530 53 250 1.7 7.0 0.00 0.12 0.12 49 1015.7
20260506033021 54 281 0.0 5.2 0.00 0.12 0.12 47 1015.3
20260506031518 55 275 1.7 7.8 0.00 0.12 0.12 46 1015.1
20260506031510 55 302 1.7 7.8 0.00 0.12 0.12 46 1015.1
20260506030033 55 235 2.6 7.8 0.00 0.12 0.12 45 1014.9
20260506024510 56 319 0.9 11.3 0.00 0.12 0.12 43 1014.4
20260506023012 56 281 0.9 7.0 0.00 0.12 0.12 43 1014.3
20260506021524 57 265 3.5 9.6 0.00 0.12 0.12 41 1014.2
20260506020004 58 272 2.6 9.6 0.00 0.12 0.12 39 1014.0
20260506014511 59 268 4.3 8.7 0.00 0.12 0.12 38 1013.8
20260506013035 61 274 6.1 13.0 0.00 0.12 0.12 36 1013.6
20260506011510 61 239 5.2 17.4 0.00 0.12 0.12 33 1013.5
20260506010020 61 250 7.8 15.6 0.00 0.12 0.12 34 1013.5
20260506004505 60 259 9.6 18.2 0.00 0.12 0.12 33 1013.5
20260506003008 62 224 9.6 20.0 0.00 0.12 0.12 31 1013.5
20260506001521 64 271 6.1 19.1 0.00 0.12 0.12 31 1013.5
20260506000005 63 249 8.7 19.1 0.00 0.12 0.12 30 1013.4
20260505234512 62 262 8.7 19.1 0.00 0.12 0.12 32 1013.4
20260505233022 62 238 9.6 15.6 0.00 0.12 0.12 36 1013.3
20260505231508 62 259 8.7 16.5 0.00 0.12 0.12 36 1013.2
20260505230034 62 247 9.6 14.8 0.00 0.12 0.12 39 1013.6
20260505224524 63 243 7.8 13.9 0.00 0.12 0.12 38 1013.6
20260505223010 62 238 8.7 16.5 0.00 0.12 0.12 42 1013.9
20260505221520 62 163 4.3 12.2 0.00 0.12 0.12 45 1013.8
20260505220006 60 268 6.1 13.0 0.00 0.12 0.12 47 1014.3
20260505214519 61 186 7.0 15.6 0.00 0.12 0.12 49 1014.5
20260505213028 61 271 6.1 14.8 0.00 0.12 0.12 47 1014.7
20260505211506 61 182 3.5 9.6 0.00 0.12 0.12 51 1014.9
20260505210016 59 264 2.6 9.6 0.00 0.12 0.12 53 1015.2
20260505204523 60 265 2.6 7.8 0.00 0.12 0.12 50 1015.0
20260505203010 61 223 4.3 13.0 0.00 0.12 0.12 51 1015.4
20260505201521 62 181 7.8 15.6 0.00 0.12 0.12 46 1015.5
20260505200033 61 278 3.5 13.0 0.00 0.12 0.12 50 1015.8
20260505194514 59 284 6.1 13.0 0.00 0.12 0.12 57 1016.0
20260505193023 58 314 4.3 13.0 0.00 0.12 0.12 58 1016.3
20260505191508 58 273 7.8 13.9 0.00 0.12 0.12 57 1016.4
20260505190020 57 259 5.2 12.2 0.00 0.12 0.12 61 1016.6
20260505184526 56 292 3.5 9.6 0.00 0.12 0.12 65 1016.9
20260505183011 55 261 4.3 12.2 0.00 0.12 0.12 67 1017.0
20260505181521 54 278 6.1 12.2 0.00 0.12 0.12 68 1017.0
20260505180027 54 249 3.5 7.8 0.00 0.12 0.12 73 1017.0
20260505174516 53 271 2.6 12.2 0.00 0.12 0.12 73 1017.0
20260505173038 53 268 4.3 10.4 0.00 0.12 0.12 75 1017.0
20260505171509 52 332 4.3 10.4 0.00 0.12 0.12 74 1017.0
20260505170025 53 230 2.6 7.8 0.00 0.12 0.12 76 1017.0
20260505164503 51 283 2.6 7.8 0.00 0.12 0.12 79 1016.9
20260505163014 50 287 3.5 6.1 0.00 0.12 0.12 79 1016.8
20260505161522 50 259 0.9 4.3 0.02 0.12 0.12 83 1016.8
20260505153022 48 306 0.9 3.5 0.04 0.12 0.12 88 1016.5
20260505151507 47 30 0.9 1.7 0.02 0.10 0.10 86 1016.5